| time (UTC) | temp C | wind direction | speed KPH | gust KPH | rain 1hr cm | rain 24hr cm | rain mn cm | humidity % | barometer mb |
| 20260507194527 | 20 | 0 | 4.8 | 0.0 | 0.00 | 0.00 | 0.00 | 42 | 1019.0 |
| 20260507193027 | 21 | 0 | 4.8 | 0.0 | 0.00 | 0.00 | 0.00 | 37 | 1019.0 |
| 20260507191526 | 21 | 0 | 4.8 | 0.0 | 0.00 | 0.00 | 0.00 | 37 | 1019.0 |
| 20260507190026 | 21 | 0 | 4.8 | 0.0 | 0.00 | 0.00 | 0.00 | 40 | 1019.0 |
| 20260507184526 | 20 | 0 | 4.8 | 0.0 | 0.00 | 0.00 | 0.00 | 44 | 1019.0 |
| 20260507183025 | 21 | 240 | 8.0 | 0.0 | 0.00 | 0.00 | 0.00 | 38 | 1019.0 |
| 20260507181525 | 21 | 240 | 8.0 | 0.0 | 0.00 | 0.00 | 0.00 | 41 | 1019.0 |
| 20260507180025 | 20 | 250 | 9.7 | 0.0 | 0.00 | 0.00 | 0.00 | 54 | 1018.0 |
| 20260507174525 | 22 | 250 | 9.7 | 0.0 | 0.00 | 0.00 | 0.00 | 40 | 1018.0 |
| 20260507173024 | 22 | 230 | 12.9 | 0.0 | 0.00 | 0.00 | 0.00 | 40 | 1018.0 |
| 20260507171524 | 23 | 230 | 16.1 | 0.0 | 0.00 | 0.00 | 0.00 | 38 | 1018.0 |
| 20260507170024 | 23 | 230 | 16.1 | 0.0 | 0.00 | 0.00 | 0.00 | 38 | 1018.0 |
| 20260507164524 | 23 | 230 | 16.1 | 0.0 | 0.00 | 0.00 | 0.00 | 38 | 1018.0 |
| 20260507163024 | 23 | 230 | 16.1 | 0.0 | 0.00 | 0.00 | 0.00 | 38 | 1018.0 |
| 20260507161523 | 23 | 230 | 16.1 | 0.0 | 0.00 | 0.00 | 0.00 | 38 | 1018.0 |
| 20260507160023 | 23 | 230 | 14.5 | 0.0 | 0.00 | 0.00 | 0.00 | 35 | 1018.0 |
| 20260507154523 | 23 | 230 | 14.5 | 0.0 | 0.00 | 0.00 | 0.00 | 35 | 1018.0 |
| 20260507153022 | 24 | 230 | 14.5 | 0.0 | 0.00 | 0.00 | 0.00 | 33 | 1018.0 |
| 20260507151522 | 24 | 230 | 14.5 | 0.0 | 0.00 | 0.00 | 0.00 | 33 | 1018.0 |
| 20260507150022 | 24 | 230 | 16.1 | 0.0 | 0.00 | 0.00 | 0.00 | 33 | 1018.0 |
| 20260507144522 | 24 | 230 | 16.1 | 0.0 | 0.00 | 0.00 | 0.00 | 33 | 1018.0 |
| 20260507143022 | 24 | 230 | 17.7 | 0.0 | 0.00 | 0.00 | 0.00 | 33 | 1018.0 |
| 20260507141521 | 24 | 230 | 17.7 | 0.0 | 0.00 | 0.00 | 0.00 | 33 | 1019.0 |
| 20260507140021 | 24 | 210 | 19.3 | 0.0 | 0.00 | 0.00 | 0.00 | 31 | 1019.0 |
| 20260507134520 | 24 | 210 | 19.3 | 0.0 | 0.00 | 0.00 | 0.00 | 31 | 1019.0 |
| 20260507133020 | 25 | 210 | 12.9 | 0.0 | 0.00 | 0.00 | 0.00 | 29 | 1019.0 |
| 20260507131520 | 25 | 210 | 12.9 | 0.0 | 0.00 | 0.00 | 0.00 | 29 | 1019.0 |
| 20260507130019 | 25 | 200 | 9.7 | 0.0 | 0.00 | 0.00 | 0.00 | 29 | 1019.0 |
| 20260507124519 | 25 | 200 | 9.7 | 0.0 | 0.00 | 0.00 | 0.00 | 29 | 1019.0 |
| 20260507123021 | 26 | 160 | 14.5 | 0.0 | 0.00 | 0.00 | 0.00 | 28 | 1019.0 |
| 20260507121519 | 26 | 160 | 14.5 | 0.0 | 0.00 | 0.00 | 0.00 | 28 | 1019.0 |
| 20260507120018 | 25 | 130 | 9.7 | 0.0 | 0.00 | 0.00 | 0.00 | 27 | 1019.0 |
| 20260507114518 | 25 | 130 | 9.7 | 0.0 | 0.00 | 0.00 | 0.00 | 27 | 1019.0 |
| 20260507113018 | 24 | 140 | 14.5 | 0.0 | 0.00 | 0.00 | 0.00 | 31 | 1019.0 |
| 20260507111517 | 24 | 140 | 14.5 | 0.0 | 0.00 | 0.00 | 0.00 | 31 | 1019.0 |
| 20260507110017 | 24 | 140 | 9.7 | 0.0 | 0.00 | 0.00 | 0.00 | 33 | 1019.0 |
| 20260507104517 | 22 | 140 | 9.7 | 0.0 | 0.00 | 0.00 | 0.00 | 46 | 1019.0 |
| 20260507103017 | 21 | 120 | 14.5 | 0.0 | 0.00 | 0.00 | 0.00 | 47 | 1019.0 |
| 20260507101517 | 21 | 120 | 14.5 | 0.0 | 0.00 | 0.00 | 0.00 | 51 | 1019.0 |
| 20260507100016 | 21 | 130 | 16.1 | 0.0 | 0.00 | 0.00 | 0.00 | 49 | 1019.0 |
| 20260507094516 | 22 | 130 | 16.1 | 0.0 | 0.00 | 0.00 | 0.00 | 45 | 1019.0 |
| 20260507093016 | 22 | 130 | 17.7 | 0.0 | 0.00 | 0.00 | 0.00 | 47 | 1019.0 |
| 20260507091515 | 21 | 130 | 17.7 | 0.0 | 0.00 | 0.00 | 0.00 | 48 | 1020.0 |
| 20260507090015 | 21 | 130 | 14.5 | 0.0 | 0.00 | 0.00 | 0.00 | 48 | 1019.0 |
| 20260507084515 | 21 | 130 | 14.5 | 0.0 | 0.00 | 0.00 | 0.00 | 48 | 1019.0 |
| 20260507083015 | 21 | 130 | 14.5 | 0.0 | 0.00 | 0.00 | 0.00 | 47 | 1019.0 |
| 20260507081514 | 20 | 130 | 14.5 | 0.0 | 0.00 | 0.00 | 0.00 | 51 | 1020.0 |
| 20260507080014 | 20 | 140 | 12.9 | 0.0 | 0.00 | 0.00 | 0.00 | 53 | 1019.0 |
| 20260507074514 | 19 | 140 | 12.9 | 0.0 | 0.00 | 0.00 | 0.00 | 55 | 1019.0 |
| 20260507073014 | 20 | 140 | 14.5 | 0.0 | 0.00 | 0.00 | 0.00 | 51 | 1019.0 |
| 20260507071513 | 20 | 140 | 14.5 | 0.0 | 0.00 | 0.00 | 0.00 | 53 | 1019.0 |
| 20260507070014 | 20 | 140 | 14.5 | 0.0 | 0.00 | 0.00 | 0.00 | 53 | 1019.0 |
| 20260507064513 | 19 | 140 | 14.5 | 0.0 | 0.00 | 0.00 | 0.00 | 52 | 1019.0 |
| 20260507063012 | 19 | 120 | 8.0 | 0.0 | 0.00 | 0.00 | 0.00 | 60 | 1019.0 |
| 20260507061512 | 18 | 120 | 8.0 | 0.0 | 0.00 | 0.00 | 0.00 | 64 | 1020.0 |
| 20260507060012 | 18 | 0 | 3.2 | 0.0 | 0.00 | 0.00 | 0.00 | 69 | 1019.0 |
| 20260507054512 | 17 | 0 | 3.2 | 0.0 | 0.00 | 0.00 | 0.00 | 69 | 1019.0 |
| 20260507053011 | 17 | 38 | 1.6 | 1.6 | 0.00 | 0.00 | 0.00 | 72 | 1019.0 |
| 20260507051511 | 16 | 0 | 0.0 | 0.0 | 0.00 | 0.00 | 0.00 | 74 | 1019.0 |
| 20260507050011 | 15 | 0 | 0.0 | 0.0 | 0.00 | 0.00 | 0.00 | 76 | 1018.0 |
| 20260507044511 | 14 | 58 | 1.6 | 1.6 | 0.00 | 0.00 | 0.00 | 77 | 1018.0 |
| 20260507043010 | 13 | 0 | 4.8 | 0.0 | 0.00 | 0.00 | 0.00 | 78 | 1018.0 |
| 20260507041510 | 13 | 0 | 4.8 | 0.0 | 0.00 | 0.00 | 0.00 | 78 | 1019.0 |
| 20260507031730 | 13 | 0 | 4.8 | 0.0 | 0.00 | 0.00 | 0.00 | 74 | 1018.0 |
| 20260507030229 | 13 | 360 | 1.6 | 8.0 | 0.00 | 0.00 | 0.00 | 72 | 1017.0 |
| 20260507024729 | 13 | 360 | 1.6 | 6.4 | 0.00 | 0.00 | 0.00 | 71 | 1017.0 |
| 20260507023229 | 13 | 360 | 1.6 | 6.4 | 0.00 | 0.00 | 0.00 | 70 | 1017.0 |
| 20260507021729 | 13 | 360 | 1.6 | 3.2 | 0.00 | 0.00 | 0.00 | 70 | 1018.0 |
| 20260507020228 | 13 | 165 | 8.0 | 8.0 | 0.00 | 0.00 | 0.00 | 69 | 1017.0 |
| 20260507014728 | 13 | 0 | 3.2 | 0.0 | 0.00 | 0.00 | 0.00 | 69 | 1017.0 |
| 20260507013228 | 13 | 0 | 3.2 | 0.0 | 0.00 | 0.00 | 0.00 | 69 | 1017.0 |
| 20260507011728 | 13 | 360 | 3.2 | 8.0 | 0.00 | 0.00 | 0.00 | 68 | 1018.0 |
| 20260507010227 | 13 | 360 | 1.6 | 6.4 | 0.00 | 0.00 | 0.00 | 65 | 1017.0 |
| 20260507004727 | 13 | 0 | 4.8 | 0.0 | 0.00 | 0.00 | 0.00 | 64 | 1017.0 |
| 20260507003227 | 13 | 0 | 4.8 | 0.0 | 0.00 | 0.00 | 0.00 | 63 | 1017.0 |
| 20260507001726 | 13 | 0 | 4.8 | 0.0 | 0.00 | 0.00 | 0.00 | 62 | 1018.0 |
| 20260507000227 | 13 | 360 | 1.6 | 8.0 | 0.00 | 0.00 | 0.00 | 61 | 1017.0 |
| 20260506233226 | 13 | 0 | 4.8 | 0.0 | 0.00 | 0.00 | 0.00 | 61 | 1017.0 |
| 20260506231725 | 13 | 0 | 4.8 | 0.0 | 0.00 | 0.00 | 0.00 | 62 | 1018.0 |
| 20260506230225 | 13 | 360 | 1.6 | 8.0 | 0.00 | 0.00 | 0.00 | 63 | 1017.0 |
| 20260506224725 | 13 | 0 | 4.8 | 0.0 | 0.00 | 0.00 | 0.00 | 65 | 1017.0 |
| 20260506223225 | 14 | 0 | 4.8 | 0.0 | 0.00 | 0.00 | 0.00 | 63 | 1017.0 |
| 20260506221724 | 14 | 0 | 4.8 | 0.0 | 0.00 | 0.00 | 0.00 | 61 | 1018.0 |
| 20260506220224 | 14 | 360 | 1.6 | 6.4 | 0.00 | 0.00 | 0.00 | 60 | 1018.0 |
| 20260506214724 | 14 | 0 | 4.8 | 0.0 | 0.00 | 0.00 | 0.00 | 56 | 1018.0 |
| 20260506213224 | 14 | 0 | 4.8 | 0.0 | 0.00 | 0.00 | 0.00 | 54 | 1018.0 |
| 20260506211723 | 14 | 0 | 4.8 | 0.0 | 0.00 | 0.00 | 0.00 | 53 | 1018.0 |
| 20260506210223 | 15 | 220 | 8.0 | 0.0 | 0.00 | 0.00 | 0.00 | 54 | 1017.0 |
| 20260506204723 | 15 | 220 | 8.0 | 0.0 | 0.00 | 0.00 | 0.00 | 55 | 1017.0 |
| 20260506203223 | 15 | 220 | 8.0 | 0.0 | 0.00 | 0.00 | 0.00 | 54 | 1017.0 |
| 20260506201722 | 15 | 220 | 8.0 | 0.0 | 0.00 | 0.00 | 0.00 | 52 | 1018.0 |
| 20260506200222 | 15 | 230 | 8.0 | 0.0 | 0.00 | 0.00 | 0.00 | 52 | 1017.0 |